This demonstration page uses our WeatherBlox Daily Observations layout. Learn more.

Left ArrowRight Arrow

39.01783, -85.05884

Hourly Observations for November 18, 2020

Temp ( °F °C ) Dew Point ( °F °C ) Humidity (%) Winds ( mph kmh ) Pressure ( in mb ) Visibility ( mi km ) Precip ( " mm )
12:52 am 00:52 Mostly Clear 30 -1.1 19 -7.2 64 64 WSW 3 6 30.54 1034 10 16.0934 0 0
1:52 am 01:52 Mostly Clear 32 0 19 -7.2 59 59 WNW 3 6 30.54 1034 10 16.0934 0 0
2:52 am 02:52 Cloudy 32 0 20 -6.7 61 61 NW 5 7 30.55 1035 10 16.0934 0 0
3:52 am 03:52 Cloudy 31 -0.6 24 -4.4 76 76 Calm 30.56 1035 10 16.0934 0 0
4:52 am 04:52 Cloudy 33 0.6 23 -5 66 66 Calm 30.58 1036 10 16.0934 0 0
5:52 am 05:52 Cloudy 35 1.7 20 -6.7 54 54 Calm 30.6 1036 10 16.0934 0 0
6:52 am 06:52 Mostly Cloudy 33 0.6 26 -3.3 75 75 Calm 30.62 1037 10 16.0934 0 0
7:52 am 07:52 Mostly Cloudy 34 1.1 23 -5 64 64 ESE 6 9 30.63 1037 10 16.0934 0 0
8:52 am 08:52 Mostly Cloudy 36 2.2 23 -5 59 59 SE 12 19 30.63 1037 10 16.0934 0 0
9:52 am 09:52 Mostly Sunny 39 3.9 23 -5 53 53 SSE 9 15 30.64 1038 10 16.0934 0 0
10:52 am 10:52 Sunny 41 5 23 -5 49 49 SSE 8 13 30.65 1038 10 16.0934 0 0
11:52 am 11:52 Mostly Sunny 44 6.7 23 -5 43 43 S 12 19 30.62 1037 10 16.0934 0 0
12:52 pm 12:52 Mostly Cloudy 46 7.8 22 -5.6 38 38 S 13 20 30.59 1036 10 16.0934 0 0
1:52 pm 13:52 Partly Cloudy 47 8.3 21 -6.1 36 36 SSE 10 17 30.56 1035 10 16.0934 0 0
2:52 pm 14:52 Partly Cloudy 47 8.3 21 -6.1 36 36 SSE 13 20 30.53 1034 10 16.0934 0 0
3:52 pm 15:52 Partly Cloudy 47 8.3 23 -5 39 39 SSE 13 20 30.51 1033 10 16.0934 0 0
4:52 pm 16:52 Mostly Sunny 45 7.2 24 -4.4 44 44 S 13 20 30.51 1033 10 16.0934 0 0
5:52 pm 17:52 Mostly Clear 41 5 24 -4.4 51 51 SSE 10 17 30.5 1033 10 16.0934 0 0
6:52 pm 18:52 Clear 40 4.4 25 -3.9 55 55 SSE 12 19 30.48 1032 10 16.0934 0 0
7:52 pm 19:52 Clear 38 3.3 25 -3.9 60 60 SSE 10 17 30.47 1032 10 16.0934 0 0
8:52 pm 20:52 Clear 40 4.4 24 -4.4 53 53 S 14 22 30.45 1031 10 16.0934 0 0
9:52 pm 21:52 Clear 40 4.4 23 -5 51 51 S 13 20 30.42 1030 10 16.0934 0 0
10:52 pm 22:52 Clear 39 3.9 23 -5 53 53 S 13 20 30.4 1030 10 16.0934 0 0
11:52 pm 23:52 Mostly Clear 38 3.3 22 -5.6 52 52 S 9 15 30.4 1029 10 16.0934 0 0

Powered by AerisWeather